[[{"header":{"parameterUnit":"m.s-1","parameterCategory":1,"la1":30.2991,"la2":30.254,"lo1":-89.0895,"lo2":-89.0444,"dy":0.0017,"dx":0.0017,"nx":28,"ny":28,"refTime":"2026-02-26T03:00:00:Z","depth":0,"parameterNumber":2,"parameterNumberName":"U-component_of_WINDS"},"data":[0,0,0,0,0,0,0,0,0,0,0,0,0,0,0,0,0,0,0,0,0,0,0,0,0,0,0,0,0,0,0,0,0,0,0,0,0,0,0,0,0,0,0,0,0,0,0,0,0,0,0,0,0,0,0,0,0,0,0.3293,0.3292,0,0.3223,0.3223,0.3222,0.3149,0.3148,0.3147,0.3146,0.3077,0.3076,0.3075,0,0,0,0,0,0,0,0,0,0,0,0,0,0.3364,0.3364,0.3293,0.3292,0.3291,0.3224,0.3223,0.3222,0.3149,0.3148,0.3147,0.3146,0.3077,0.3076,0.3075,0,0,0,0,0,0,0,0,0,0,0,0,0,0.3318,0.3363,0.3293,0.3247,0.3242,0.3224,0.3223,0.3221,0.3149,0.3148,0.3146,0.3145,0.3077,0.3076,0.3075,0.3097,0,0,0.307,0.307,0,0,0,0,0,0,0,0,0.3321,0.3316,0.3255,0.325,0.3245,0.3193,0.3222,0.318,0.315,0.3185,0.3146,0.3144,0.3117,0.3112,0.3102,0.3094,0.3091,0.307,0.3069,0.3069,0.3069,0,0,0,0,0,0,0,0.3324,0.3318,0.3266,0.3254,0.3248,0.323,0.3222,0.3214,0.316,0.3182,0.3176,0.3169,0.3114,0.3104,0.31,0.309,0.307,0.3069,0.3068,0.3068,0.3095,0.3097,0,0,0,0,0,0,0.3334,0.3321,0.3268,0.3263,0.328,0.323,0.3221,0.3211,0.316,0.3151,0.317,0.3166,0.3107,0.3102,0.3098,0.312,0.3069,0.3068,0.3067,0.3094,0.3095,0.3097,0,0,0,0,0,0,0.3336,0.333,0.3271,0.3291,0.3282,0.323,0.322,0.3211,0.3201,0.3151,0.3142,0.317,0.3106,0.3099,0.3097,0.3117,0.3067,0.3066,0.3092,0.3094,0.3096,0.3166,0,0,0,0,0,0,0.3338,0.3331,0.3339,0.3292,0.3281,0.3272,0.3222,0.3211,0.3199,0.3192,0.3149,0.314,0.3104,0.31,0.3096,0.3114,0.3065,0.309,0.3093,0.3096,0.3162,0.3171,0.3178,0,0,0,0,0,0.3341,0.3362,0.334,0.3334,0.329,0.3273,0.3267,0.3224,0.32,0.3208,0.3176,0.3141,0.3115,0.31,0.3095,0.3113,0.3088,0.3092,0.3095,0.3158,0.3169,0.3178,0,0,0,0,0,0,0.3414,0.3355,0.333,0.3336,0.331,0.3261,0.3269,0.3237,0.3218,0.3213,0.3161,0.3152,0.3156,0.3134,0.3119,0.3132,0.3097,0.3099,0.3146,0.3156,0.3164,0.317,0.3064,0,0,0,0,0,0.343,0.3421,0.337,0.338,0.3368,0.3321,0.3312,0.3282,0.3253,0.3242,0.321,0.3184,0.3169,0.3161,0.3145,0.3158,0.3148,0.3168,0.3176,0.3183,0.3186,0.3191,0.32,0.3108,0.3108,0.3108,0,0,0.3465,0.3431,0.3429,0.3394,0.337,0.3362,0.3312,0.3306,0.33,0.3241,0.3237,0.3213,0.318,0.3185,0.3186,0.3167,0.3209,0.3187,0.3193,0.3192,0.3195,0.3204,0.3212,0.3111,0.311,0.311,0,0,0.3524,0.3497,0.3503,0.348,0.3444,0.3412,0.3414,0.3369,0.335,0.3345,0.3301,0.3293,0.3269,0.3248,0.3234,0.3284,0.3251,0.328,0.3323,0.3328,0.3335,0.3341,0.336,0.3367,0.3283,0.3283,0.3283,0,0.3571,0.3557,0.351,0.3506,0.3492,0.3437,0.3443,0.3423,0.3385,0.3377,0.3356,0.3325,0.3299,0.3298,0.3311,0.3301,0.3301,0.3285,0.3338,0.3344,0.3349,0.3365,0.3372,0.3287,0.3287,0.3286,0.3286,0,0.3617,0.3608,0.3617,0.358,0.3567,0.3568,0.3522,0.3514,0.3484,0.3455,0.3451,0.3417,0.3394,0.3391,0.3362,0.3387,0.3376,0.3347,0.3311,0.3362,0.3377,0.3383,0.3293,0.3291,0.329,0.3289,0,0,0.3721,0.3658,0.3662,0.3645,0.3601,0.3593,0.3591,0.3568,0.3563,0.3537,0.3535,0.3516,0.3489,0.3473,0.3441,0.3446,0.3488,0.3416,0.3415,0.3431,0.3513,0.3536,0.3544,0.3466,0.3467,0.3467,0.3516,0,0.3773,0.3766,0.3724,0.373,0.3721,0.3668,0.3667,0.364,0.3612,0.3601,0.357,0.3557,0.3522,0.3512,0.3515,0.3483,0.3504,0.3478,0.3464,0.3464,0.3475,0.3552,0.3576,0.3623,0.3522,0.3522,0.3523,0,0.3833,0.3811,0.3816,0.3772,0.3767,0.3766,0.3741,0.373,0.3699,0.3678,0.366,0.3624,0.362,0.3585,0.3578,0.3562,0.3553,0.3536,0.3537,0.3535,0.3497,0.3553,0.3638,0.3645,0.3532,0.3531,0.3531,0,0.3909,0.388,0.388,0.3867,0.3815,0.3816,0.3795,0.3761,0.375,0.3728,0.372,0.3698,0.3686,0.367,0.3628,0.3607,0.3627,0.3588,0.361,0.3611,0.3617,0.3618,0.3703,0.361,0.361,0.361,0.361,0,0.3972,0.3977,0.3913,0.3913,0.3918,0.3868,0.3874,0.3848,0.3819,0.3813,0.3765,0.3761,0.3706,0.3695,0.3663,0.3663,0.3657,0.3641,0.3633,0.3646,0.3648,0.364,0.3636,0.3612,0.3612,0.3611,0.3611,0,0.4058,0.4015,0.4011,0.3962,0.395,0.3956,0.3914,0.3912,0.3881,0.3874,0.3869,0.3821,0.3805,0.3762,0.3736,0.3714,0.3723,0.3707,0.3734,0.3729,0.3753,0.3752,0.3837,0.3846,0.3748,0.3748,0.3749,0,0.4101,0.4104,0.4056,0.4048,0.4028,0.4017,0.4004,0.3956,0.3945,0.3909,0.3911,0.3892,0.3874,0.3852,0.3815,0.3795,0.3778,0.3809,0.3774,0.3788,0.3779,0.378,0.378,0.3817,0.3818,0.3819,0.382,0,0.4183,0.4162,0.4146,0.4122,0.4109,0.4088,0.4064,0.4061,0.4006,0.3997,0.398,0.3966,0.3939,0.3921,0.3895,0.3873,0.3838,0.3831,0.3835,0.3849,0.3865,0.3858,0.3756,0.383,0.3829,0.3828,0.3828,0.3827,0.425,0.425,0.4215,0.4199,0.4176,0.4155,0.4151,0.4119,0.4104,0.4078,0.405,0.4037,0.4005,0.3966,0.3946,0.3935,0.3917,0.3922,0.3924,0.3926,0.3933,0.3866,0.393,0.393,0.3929,0.3929,0.3929,0,0.4329,0.4305,0.429,0.4258,0.4246,0.4213,0.4185,0.4177,0.4165,0.4138,0.4121,0.4103,0.4084,0.4045,0.4023,0.4022,0.4006,0.4018,0.4018,0.4014,0.395,0.3949,0.4032,0.4032,0.4032,0.4032,0.4032,0.4032,0.437,0.4368,0.4343,0.4329,0.4304,0.4291,0.4278,0.4258,0.4236,0.4217,0.4202,0.4176,0.4144,0.4119,0.4101,0.409,0.4085,0.4103,0.4087,0.4028,0.4018,0.4009,0.4008,0.4102,0.4102,0.4151,0.4152,0.4152]},{"header":{"parameterUnit":"m.s-1","parameterCategory":1,"la1":30.2991,"la2":30.254,"lo1":-89.0895,"lo2":-89.0444,"dy":0.0017,"dx":0.0017,"nx":28,"ny":28,"refTime":"2026-02-26T03:00:00:Z","depth":0,"parameterNumber":3,"parameterNumberName":"V-component_of_WINDS"},"data":[0,0,0,0,0,0,0,0,0,0,0,0,0,0,0,0,0,0,0,0,0,0,0,0,0,0,0,0,0,0,0,0,0,0,0,0,0,0,0,0,0,0,0,0,0,0,0,0,0,0,0,0,0,0,0,0,0,0,2.6914,2.6915,0,2.6983,2.6984,2.6985,2.6985,2.6985,2.6984,2.6983,2.7053,2.7056,2.7058,0,0,0,0,0,0,0,0,0,0,0,0,0,2.6781,2.6783,2.6914,2.6915,2.6915,2.6983,2.6984,2.6985,2.6986,2.6984,2.6983,2.6982,2.7052,2.7055,2.7059,0,0,0,0,0,0,0,0,0,0,0,0,0,2.6843,2.6784,2.6914,2.6924,2.6926,2.6983,2.6984,2.6985,2.6986,2.6984,2.6983,2.6982,2.7051,2.7055,2.7059,2.7111,0,0,2.7071,2.7073,0,0,0,0,0,0,0,0,2.684,2.6848,2.6922,2.6923,2.6925,2.6974,2.6963,2.7027,2.6986,2.6963,2.6983,2.6981,2.7028,2.7034,2.705,2.7114,2.7117,2.7072,2.7074,2.7076,2.7077,0,0,0,0,0,0,0,2.6835,2.6845,2.6941,2.6923,2.6925,2.6925,2.6932,2.6975,2.7002,2.6965,2.6965,2.6973,2.7029,2.7046,2.7051,2.7118,2.7072,2.7075,2.7078,2.7079,2.7228,2.723,0,0,0,0,0,0,2.6829,2.6841,2.6939,2.6943,2.6878,2.6928,2.6937,2.696,2.7001,2.7007,2.6974,2.6973,2.704,2.7047,2.7054,2.7117,2.7076,2.708,2.7082,2.7227,2.7229,2.723,0,0,0,0,0,0,2.6826,2.6838,2.6936,2.6893,2.6905,2.6932,2.6958,2.6962,2.6979,2.7009,2.7013,2.6987,2.7039,2.7048,2.7097,2.712,2.7082,2.7085,2.7225,2.7227,2.7229,2.7245,0,0,0,0,0,0,2.6822,2.6837,2.6857,2.6893,2.6907,2.6978,2.696,2.6964,2.6986,2.6985,2.7022,2.7027,2.7038,2.7091,2.7101,2.7125,2.7088,2.7223,2.7226,2.7229,2.7242,2.7247,2.7251,0,0,0,0,0,2.6818,2.6858,2.6858,2.687,2.6933,2.698,2.6988,2.7001,2.6988,2.7008,2.7027,2.7025,2.7115,2.7096,2.7107,2.7132,2.7222,2.7225,2.7228,2.724,2.7246,2.7251,0,0,0,0,0,0,2.6824,2.6863,2.6863,2.6917,2.6945,2.698,2.7006,2.7007,2.7039,2.7037,2.7051,2.7059,2.7108,2.7125,2.7102,2.7185,2.7167,2.7173,2.7172,2.7178,2.7183,2.7178,2.7092,0,0,0,0,0,2.6831,2.6866,2.6898,2.6942,2.6956,2.6979,2.6999,2.7007,2.7037,2.7048,2.7071,2.71,2.7134,2.7157,2.719,2.7244,2.7253,2.7268,2.7272,2.7276,2.7281,2.7311,2.7318,2.7241,2.7241,2.7241,0,0,2.6847,2.6873,2.6894,2.6944,2.6967,2.7002,2.6989,2.7027,2.7053,2.7054,2.7102,2.7119,2.7152,2.7203,2.7227,2.7219,2.7304,2.728,2.7283,2.7286,2.7315,2.7323,2.7329,2.7244,2.7243,2.7243,0,0,2.6895,2.6917,2.6957,2.698,2.7015,2.7029,2.7039,2.7073,2.7085,2.7133,2.7135,2.7166,2.7225,2.7249,2.7269,2.7325,2.7325,2.7335,2.736,2.7389,2.7395,2.7401,2.7421,2.7428,2.734,2.734,2.734,0,2.691,2.6964,2.6977,2.7016,2.7038,2.704,2.708,2.7102,2.7146,2.7161,2.7151,2.7226,2.7248,2.7305,2.7319,2.7335,2.7346,2.7332,2.7393,2.7399,2.7404,2.7424,2.7432,2.7341,2.7341,2.7341,2.7341,0,2.6982,2.7019,2.7047,2.7089,2.7114,2.7153,2.7172,2.7196,2.7201,2.7216,2.7265,2.7292,2.7331,2.7345,2.735,2.7403,2.7397,2.739,2.7373,2.7412,2.7431,2.7439,2.7343,2.7343,2.7342,2.7342,0,0,2.7036,2.7085,2.7095,2.7114,2.7153,2.7182,2.7221,2.7259,2.728,2.731,2.7343,2.7393,2.7387,2.7409,2.7417,2.7443,2.7486,2.7433,2.7433,2.7442,2.7547,2.7552,2.7561,2.7486,2.7487,2.7488,2.7544,0,2.7088,2.7158,2.717,2.7231,2.7266,2.7269,2.7303,2.733,2.7345,2.7377,2.7393,2.7429,2.7418,2.7431,2.7457,2.7475,2.7507,2.7471,2.7517,2.7518,2.751,2.7571,2.7577,2.7628,2.7552,2.7553,2.7554,0,2.7158,2.7191,2.7255,2.7289,2.7304,2.7334,2.7371,2.7401,2.7432,2.7441,2.7466,2.7471,2.7511,2.7491,2.7547,2.7523,2.7542,2.7554,2.7556,2.7562,2.7539,2.7579,2.7645,2.7653,2.7565,2.7564,2.7564,0,2.7192,2.7252,2.7298,2.7314,2.7355,2.7376,2.7394,2.7423,2.7446,2.7478,2.7492,2.7528,2.7548,2.7575,2.759,2.7574,2.7645,2.7626,2.7654,2.7654,2.767,2.7669,2.7741,2.7681,2.768,2.768,2.768,0,2.725,2.7289,2.7314,2.7342,2.7387,2.7401,2.7444,2.7461,2.7487,2.7519,2.7523,2.7553,2.757,2.7602,2.7613,2.7658,2.7667,2.7676,2.7678,2.7676,2.7675,2.7689,2.7687,2.7682,2.7682,2.7682,2.7681,0,2.7296,2.7313,2.7364,2.7398,2.7408,2.7439,2.7468,2.7496,2.7511,2.7552,2.7562,2.7585,2.7623,2.764,2.7687,2.7695,2.7746,2.7746,2.7736,2.7737,2.7765,2.7762,2.7849,2.7862,2.7792,2.7793,2.7794,0,2.7332,2.7362,2.74,2.7422,2.744,2.7475,2.7498,2.7513,2.7536,2.7574,2.7597,2.7635,2.7667,2.7728,2.7749,2.7785,2.7786,2.7814,2.7791,2.7788,2.7787,2.7785,2.7789,2.7818,2.7819,2.7819,2.782,0,2.7394,2.7401,2.7435,2.7471,2.7499,2.7528,2.7557,2.7574,2.7593,2.762,2.7659,2.7683,2.7731,2.7769,2.7806,2.7824,2.7826,2.7827,2.7835,2.7833,2.7827,2.7832,2.7748,2.7825,2.7824,2.7824,2.7824,2.7823,2.7437,2.7464,2.7495,2.7532,2.7555,2.7582,2.761,2.7628,2.7661,2.7702,2.7708,2.775,2.778,2.783,2.7849,2.7882,2.7875,2.7887,2.7891,2.7894,2.7896,2.7821,2.7889,2.7889,2.7888,2.7888,2.7888,0,2.75,2.752,2.7554,2.7594,2.7623,2.7621,2.7653,2.7677,2.7714,2.7742,2.7773,2.7818,2.7855,2.7879,2.7916,2.7938,2.7939,2.7947,2.7946,2.795,2.7899,2.7889,2.7945,2.7945,2.7945,2.7945,2.7945,2.7945,2.7536,2.7583,2.7594,2.7652,2.7671,2.7713,2.7731,2.7756,2.7778,2.7828,2.7859,2.7875,2.7901,2.794,2.7974,2.798,2.7994,2.8002,2.8008,2.796,2.7954,2.7948,2.7938,2.8005,2.8005,2.8056,2.8057,2.8057]}]]